{"data":{"norad_id":66739,"intl_designator":"2025-276CB","name":"FLOCK 4H-36","alt_names":[],"object_type":"PAYLOAD","status":"ACTIVE","operator":null,"country":"US","launch_date":"2025-11-28","launch_site_code":"AFWTR","launch_vehicle":null,"mission":null,"orbit_class":"UNKNOWN","rcs_meters":null,"size_class":null,"mass_kg":null,"dimensions":null,"purposes":["earth_obs"],"wikipedia_slug":null,"has_3d_model":false,"image_url":null,"decayed_at":null,"tle_current":{"epoch":"2026-09-19T11:25:41.006784Z","epoch_age_seconds":110467,"freshness":"FRESH","line1":"1 66739U 25276CB  26262.47616906  .00004952  00000+0  22336-3 0  9998","line2":"2 66739  97.4167 334.9019 0002515  26.3229 333.8134 15.21464493 44768","mean_motion":15.21464493,"eccentricity":0.0002515,"inclination_deg":97.4167,"raan_deg":334.9019,"arg_perigee_deg":26.3229,"mean_anomaly_deg":333.8134,"bstar":0.00022336,"rev_number":4476,"period_min":94.645652700092,"perigee_km":499.69222495272,"apogee_km":503.1526433481,"semimajor_km":6879.5594341504,"source":"CELESTRAK","updated_at":"2026-09-20T09:00:34.754442Z"}}}